Wind_Speed
31 30 30 29 28 27 26 25 26 27 27 27 27 27 27 26 25 24 24 25 26 25 25 25 28 28 28 27 26 26 25 25 24 24 23 23 22 20 19 18 17 16 15 14 13 12 11 11 12 12 11 10 9 8 6 5 5 5 5 4 3 3 3 3 3 3 3 3 4
31 30 30 29 27 26 25 25 25 26 26 26 26 27 27 26 25 24 25 26 26 26 26 26 26 27 27 27 26 26 26 25 25 24 23 22 21 20 19 18 17 16 15 14 13 12 11 11 11 11 11 10 8 7 5 4 4 5 5 4 3 3 3 3 3 3 3 4 5
31 31 30 29 28 27 26 25 25 26 26 26 26 26 26 26 25 25 25 26 26 26 26 25 25 26 27 26 26 26 26 26 26 25 24 22 21 20 18 17 17 16 15 14 13 11 10 10 10 10 10 9 8 6 4 3 3 4 5 4 4 4 3 3 3 3 4 5 5
31 31 30 29 29 28 27 26 27 27 27 26 26 26 25 25 24 24 25 26 26 25 25 25 25 25 26 27 26 26 26 26 26 25 24 22 21 19 18 17 17 16 15 14 13 11 10 9 9 9 9 9 8 6 5 4 3 3 4 4 4 4 3 3 2 3 4 5 6
31 30 29 29 29 28 27 28 28 28 27 27 26 25 25 24 23 24 25 26 26 26 25 25 25 26 27 28 27 27 26 26 26 25 24 22 21 19 18 17 16 16 15 14 13 12 10 9 9 9 9 9 8 7 6 4 3 3 3 3 3 2 2 2 3 4 5 6 6
30 29 29 29 28 28 27 28 29 28 27 26 26 26 25 24 24 25 26 27 27 26 26 26 26 28 29 28 28 27 27 26 25 24 23 22 21 19 18 17 16 15 15 14 13 12 11 10 10 10 10 9 8 7 6 5 3 3 2 2 1 2 2 2 3 4 5 6 6
29 29 28 28 28 27 27 28 28 28 27 26 27 26 25 25 25 27 27 28 28 27 27 27 28 29 30 29 28 28 27 26 25 24 23 22 20 19 18 17 16 15 15 14 13 12 11 10 10 10 9 9 8 7 6 4 2 2 2 2 2 2 3 4 5 6 6 7 7
28 28 28 27 27 28 28 29 28 26 26 25 26 26 26 26 27 28 28 28 28 27 27 28 29 29 30 30 29 28 27 26 25 24 23 21 20 19 17 16 15 14 14 13 13 12 10 9 9 8 8 7 6 6 4 2 1 1 2 3 2 3 4 5 6 7 7 7 7
27 27 27 27 27 28 28 28 27 26 25 25 26 26 27 27 28 29 29 28 27 27 27 27 28 28 29 29 29 28 27 26 25 24 23 21 20 18 17 15 15 14 13 12 12 11 10 9 8 7 6 6 5 5 3 2 0 1 1 1 2 3 5 6 7 7 7 8 8
27 27 27 27 28 28 28 27 26 26 25 26 26 27 27 27 28 29 28 27 26 26 26 26 27 28 29 29 28 28 27 26 25 24 22 21 19 18 16 15 15 14 13 12 11 10 10 9 8 6 5 5 5 4 3 1 1 2 1 0 2 3 5 6 7 7 8 8 8
28 27 27 28 28 28 27 26 25 25 25 26 27 27 27 28 28 29 28 27 27 26 26 26 27 29 29 29 28 27 27 26 25 24 22 20 19 17 16 15 14 14 13 12 11 10 10 8 7 6 5 4 4 3 2 1 1 2 2 2 3 4 6 6 7 7 8 8 9
28 28 28 28 28 28 27 26 25 25 26 27 27 27 27 28 28 28 28 28 28 27 27 28 29 30 29 28 27 27 26 26 24 23 21 20 18 17 16 15 14 14 13 12 11 11 10 9 7 6 5 4 3 3 2 1 1 2 3 3 4 6 6 7 7 7 8 9 9
28 28 28 28 28 27 26 25 25 25 26 27 27 27 27 27 28 28 29 29 29 28 28 29 29 29 29 28 27 26 26 25 24 22 21 19 18 17 15 14 14 13 13 12 11 11 10 9 8 6 5 4 3 3 2 2 2 3 4 5 5 6 7 7 7 8 8 9 10
28 28 28 28 27 26 25 25 25 25 26 26 26 26 27 27 28 29 30 30 29 29 29 29 28 28 28 27 27 26 25 24 23 22 20 19 18 17 15 14 13 12 12 11 10 10 9 8 7 6 5 4 3 3 3 3 3 4 5 6 6 7 7 8 8 8 9 10 11
28 28 28 27 26 25 24 24 25 25 26 26 26 26 26 26 27 29 30 30 30 29 29 28 27 27 26 26 26 26 25 24 23 21 20 19 17 16 15 14 13 11 11 10 10 9 8 7 6 5 5 4 3 3 3 3 4 4 5 6 7 7 8 8 9 9 10 10 11
27 27 27 26 25 25 25 24 24 25 25 26 26 26 26 26 27 29 30 30 29 29 28 28 27 27 26 26 25 25 24 23 22 21 20 19 17 16 15 13 12 11 10 9 8 7 6 5 4 3 2 2 1 1 2 2 4 5 6 7 7 8 9 9 9 10 10 11 12
27 26 26 26 25 25 25 25 24 25 25 26 26 26 26 26 27 28 29 29 29 28 28 28 28 27 27 26 25 24 23 22 21 20 19 18 17 16 14 13 12 10 9 8 7 6 5 4 3 2 1 1 1 2 2 3 4 5 6 7 8 8 9 10 10 11 11 12 12
26 26 25 25 25 25 25 25 25 25 26 26 26 26 26 26 27 28 29 29 29 28 28 28 28 28 27 26 24 23 23 22 21 19 18 17 16 15 14 13 12 11 10 9 8 6 5 3 2 1 1 1 2 3 3 4 5 6 7 8 8 9 9 10 11 11 12 12 13
26 25 25 25 25 25 25 25 26 26 26 26 26 26 26 26 27 28 28 28 28 29 29 29 28 27 27 26 24 23 22 21 20 19 18 17 16 15 14 13 12 11 10 9 8 6 5 4 2 1 0 1 2 3 4 5 6 7 8 9 9 10 10 11 11 12 12 13 13
25 25 25 24 24 24 25 25 26 26 26 25 25 25 26 26 27 28 29 29 29 29 29 29 28 27 26 25 24 23 21 20 20 19 17 16 15 14 13 12 11 10 9 8 7 6 4 3 2 1 0 1 2 4 5 6 7 8 9 9 10 11 11 12 12 12 13 13 13
25 25 25 24 25 25 25 25 26 26 25 25 25 26 27 28 28 29 29 30 29 29 29 29 28 27 26 25 24 23 21 20 19 18 17 15 14 13 12 11 10 9 8 7 6 5 3 2 2 1 0 1 3 4 5 6 7 8 9 10 10 11 12 12 13 13 14 14 14
24 25 25 25 25 26 26 26 26 26 26 26 26 27 28 29 30 30 30 30 29 29 28 28 27 27 26 25 24 23 21 20 19 17 16 15 13 12 11 10 9 8 7 6 4 3 2 1 1 1 1 1 2 4 5 6 7 8 9 10 10 11 12 12 13 14 14 14 14
25 25 25 26 26 26 26 26 26 26 27 27 28 29 30 30 30 30 30 30 29 28 28 27 26 26 25 24 23 22 21 19 18 16 15 14 13 12 11 9 8 7 6 5 4 3 2 1 1 1 1 2 3 4 5 6 7 8 9 10 11 12 12 13 13 14 14 14 14
25 25 26 26 26 26 26 26 27 27 27 28 29 30 30 30 30 30 30 29 28 28 27 26 26 25 24 23 22 21 20 19 17 16 14 13 12 11 10 8 7 6 5 5 4 3 3 2 2 2 2 3 3 4 5 6 8 9 10 11 12 13 13 14 14 14 15 15 15
26 26 26 26 26 26 26 26 27 28 29 29 30 30 30 30 30 29 29 28 28 27 27 26 25 24 23 22 21 20 18 17 16 15 14 13 12 10 9 7 5 5 4 4 4 4 3 3 3 3 4 4 5 6 6 7 8 9 10 11 12 13 14 14 15 15 15 15 14
27 27 27 27 26 26 26 27 28 29 30 30 30 30 29 29 29 29 28 28 27 27 26 25 24 23 22 21 20 19 17 16 15 14 13 13 11 10 7 5 4 3 3 4 4 4 4 4 4 4 5 5 6 7 8 9 10 10 11 12 12 13 14 15 15 15 15 14 13
27 27 27 27 26 26 27 28 29 30 30 30 30 29 29 28 28 28 28 28 27 26 25 25 24 23 22 21 19 18 17 15 14 13 13 12 11 9 7 4 2 2 3 3 4 4 5 4 4 4 4 6 7 8 9 10 11 12 12 12 13 13 14 15 15 15 15 14 13
27 28 28 27 26 26 27 28 29 30 30 29 29 29 28 28 28 28 28 27 27 26 25 24 23 22 21 20 19 17 16 15 14 13 12 11 10 9 6 4 1 2 2 3 4 5 5 5 4 4 4 6 7 9 10 11 12 13 13 13 13 14 14 15 15 15 15 14 13
28 28 28 27 27 27 27 28 29 29 29 29 29 29 29 28 28 28 27 27 26 25 24 23 22 21 20 19 18 16 15 14 13 12 11 10 9 8 6 3 0 2 3 3 4 5 6 6 6 5 5 6 7 9 10 12 13 13 13 14 14 14 14 15 15 15 15 15 14
27 27 27 27 27 27 27 27 28 29 29 29 29 29 28 28 28 27 27 26 25 25 24 23 21 21 20 18 17 16 14 13 12 11 10 9 8 6 4 2 1 3 3 3 4 6 7 8 7 7 7 7 8 9 11 12 13 13 14 14 14 15 15 15 16 16 16 15 15
26 26 26 27 27 26 26 27 28 29 29 29 29 29 28 27 27 26 26 25 25 23 22 21 21 20 19 17 16 15 14 12 11 10 8 7 5 4 3 2 3 4 4 4 5 6 8 9 9 9 8 8 9 10 11 12 13 13 14 14 15 15 15 16 16 16 16 15 14
25 26 26 26 26 26 27 27 28 28 28 29 28 28 27 26 26 25 25 25 24 23 22 21 20 19 18 16 15 14 13 11 10 8 6 4 3 3 3 3 4 4 5 5 6 7 8 9 10 10 9 9 10 11 12 12 13 13 13 14 14 15 15 16 16 15 15 14 14
25 25 26 26 26 26 27 27 27 27 27 27 27 27 26 26 26 25 24 23 23 22 21 20 19 18 17 15 14 13 11 9 7 6 4 3 3 3 4 3 4 5 6 6 7 8 9 10 11 11 10 10 10 11 12 12 12 12 13 14 14 15 15 15 15 15 14 14 14
25 25 25 26 26 26 26 26 27 27 27 26 26 26 26 26 25 25 24 23 22 21 20 19 18 17 15 14 12 11 9 7 5 4 4 4 4 4 3 2 3 5 6 7 8 9 10 10 11 11 11 11 11 11 12 12 12 12 13 14 14 14 14 14 14 14 14 13 13
24 25 25 25 25 26 26 26 27 27 27 26 26 26 26 26 25 24 24 23 22 21 19 18 16 15 14 12 10 8 7 6 5 4 4 4 4 3 3 2 2 4 6 7 8 9 10 10 11 11 11 11 11 12 12 12 12 12 13 13 13 13 13 13 13 13 13 12 12
24 25 25 25 25 25 26 26 26 26 26 26 26 26 25 25 24 24 23 22 21 20 19 17 16 14 13 11 9 7 6 5 5 4 3 3 3 3 3 2 1 3 5 6 8 9 9 10 10 10 10 11 12 12 12 12 12 12 12 13 13 13 12 12 12 12 11 11 11
24 24 24 24 24 25 25 25 25 26 26 26 26 26 25 24 24 23 22 21 20 20 18 16 15 13 12 11 9 8 7 6 5 4 3 2 2 2 2 2 1 1 3 5 7 8 8 9 9 10 10 11 12 12 12 12 12 12 12 12 12 12 12 12 11 11 11 10 11
23 23 23 23 23 24 24 24 25 25 25 25 25 25 24 24 23 21 20 19 19 18 17 15 14 12 11 10 9 8 6 5 5 4 4 3 2 2 2 2 2 2 2 3 5 6 7 8 9 9 10 11 11 12 12 12 12 12 12 12 12 12 11 11 11 11 11 12 12
23 23 24 24 24 23 23 24 24 25 25 25 25 24 23 22 21 20 18 18 17 17 16 14 13 11 9 8 7 6 5 4 3 3 3 3 2 3 4 4 4 3 2 2 3 5 6 8 9 9 10 10 11 11 11 11 12 12 12 12 12 12 11 11 11 12 13 13 14
24 24 24 24 23 23 23 24 24 25 25 25 24 23 22 21 20 18 17 16 15 15 14 13 12 10 8 7 6 4 3 2 1 1 1 1 2 4 5 5 5 3 2 2 3 5 6 8 9 10 10 10 10 11 11 11 11 12 12 12 12 12 12 12 13 13 14 15 15
23 23 23 23 23 24 24 25 25 24 24 24 23 22 21 20 19 17 16 15 14 13 12 11 10 9 8 7 6 4 3 2 1 1 2 3 4 5 6 6 5 4 3 3 3 5 7 9 9 9 9 10 10 10 10 10 11 12 12 12 12 13 13 14 14 15 15 15 15
Wind_Direction
157 158 158 158 157 156 156 157 158 159 159 158 158 159 159 160 160 161 163 163 163 163 162 161 159 157 157 158 159 159 158 158 158 159 160 159 157 155 154 154 153 151 148 148 151 156 161 163 161 159 159 160 165 169 170 165 159 158 158 159 163 173 189 203 214 219 229 245 255
156 157 157 156 155 154 153 154 156 157 158 157 157 157 158 158 159 161 163 163 163 163 162 159 157 156 156 157 158 160 160 161 161 161 161 159 156 154 153 153 152 150 149 150 155 160 164 165 164 162 161 162 165 166 163 155 149 149 151 154 169 192 210 222 225 225 229 236 243
155 156 156 155 154 153 152 153 154 155 155 155 156 156 156 158 159 161 162 163 163 163 161 158 155 154 155 156 159 161 162 162 162 162 160 157 154 153 153 152 150 149 150 152 157 162 165 164 161 157 155 154 155 159 162 158 148 146 150 161 183 207 225 234 235 232 235 241 246
154 154 155 155 154 154 153 153 153 154 154 154 153 154 155 157 158 160 161 162 163 163 161 158 155 154 156 158 160 161 162 162 162 161 158 155 153 152 152 151 150 149 151 154 158 162 164 162 155 147 143 142 146 157 169 179 173 161 164 176 195 213 229 236 232 233 239 248 254
153 154 154 154 154 154 153 153 153 152 152 152 152 153 155 157 158 158 160 162 163 162 160 158 156 156 158 160 160 159 159 160 160 159 156 153 152 152 152 151 151 151 153 156 160 163 164 161 152 144 141 142 149 162 177 190 191 183 183 195 210 230 240 236 230 234 243 254 262
152 153 153 153 153 152 152 152 152 151 151 151 152 153 156 158 158 159 160 161 162 160 159 158 157 158 159 159 158 157 157 158 158 157 154 151 151 152 152 153 153 154 157 159 162 164 165 161 153 148 148 153 161 173 185 193 190 183 180 193 227 264 268 253 244 247 255 263 269
150 150 150 151 151 151 150 151 151 151 151 153 154 155 157 159 159 160 160 160 159 158 158 159 158 158 158 157 156 156 156 156 156 154 153 151 152 152 153 154 156 157 159 161 163 163 162 159 154 151 154 161 169 179 187 189 178 163 160 168 202 250 263 260 260 263 269 274 275
148 148 149 150 150 150 150 150 150 150 151 154 156 157 158 159 159 159 159 158 157 157 159 159 158 157 156 155 155 155 155 155 153 152 151 151 152 153 154 155 156 158 159 161 161 160 159 155 152 151 153 159 166 177 187 189 149 116 136 158 188 227 249 258 265 272 278 281 280
145 147 148 148 149 149 150 150 150 150 151 154 157 158 158 159 159 159 158 157 157 158 158 158 157 157 156 155 154 154 154 153 152 151 151 151 152 153 154 155 155 155 155 156 157 156 155 152 150 148 149 153 160 174 190 209 14 50 86 148 194 223 242 255 266 274 280 281 280
144 144 145 146 147 147 148 148 149 149 151 153 156 157 157 157 158 159 158 157 157 158 157 156 156 155 155 155 154 154 153 152 151 150 150 151 152 152 153 153 153 152 152 154 155 153 151 148 147 147 147 150 160 176 195 233 333 10 22 350 247 245 252 259 268 274 278 278 277
142 142 143 143 144 145 145 145 146 148 150 152 154 155 156 156 158 158 157 156 156 156 156 155 155 155 155 154 153 152 151 150 149 149 149 150 151 152 152 152 152 152 153 155 155 152 149 147 149 149 148 148 159 176 197 245 320 341 333 305 280 269 267 271 275 278 278 278 277
140 140 141 141 142 143 143 143 145 147 149 150 152 153 154 155 156 156 156 155 154 154 154 154 155 155 153 152 150 149 148 148 148 148 148 148 149 150 150 151 153 155 156 157 155 152 150 150 151 151 151 150 157 169 190 232 283 298 292 283 277 275 276 279 281 282 281 280 278
139 139 139 139 140 141 142 143 144 146 148 149 150 151 152 154 155 156 155 153 152 151 152 153 154 153 151 149 147 146 146 146 146 146 146 147 148 148 150 152 155 157 158 156 153 152 150 150 150 150 152 156 161 169 189 222 254 268 272 272 273 274 277 280 282 283 282 282 281
138 138 138 139 140 141 141 142 144 146 147 147 148 149 151 152 155 155 153 150 149 149 150 150 150 149 148 146 145 144 144 144 144 145 145 146 147 149 151 154 157 157 154 151 148 147 147 146 147 150 154 161 168 182 203 228 251 264 269 272 274 275 278 280 282 283 283 283 283
137 138 138 139 140 141 142 143 144 145 146 145 146 147 149 150 151 151 150 148 148 148 147 146 145 145 145 144 143 142 142 143 144 144 144 146 148 150 153 155 155 152 147 142 140 139 139 139 142 146 153 162 173 189 213 236 254 265 271 274 277 279 280 281 283 284 284 284 285
137 138 139 140 141 141 142 142 143 143 144 144 145 146 147 147 147 148 147 146 146 146 145 143 141 140 141 141 141 141 142 143 144 144 144 146 148 150 152 151 148 143 137 133 130 128 125 124 124 126 133 145 174 218 244 257 263 268 271 275 279 281 283 284 284 284 284 284 284
136 138 140 140 141 141 141 142 141 142 143 144 144 145 145 145 145 145 146 145 144 143 141 140 139 138 138 138 139 140 141 142 143 144 145 146 147 148 148 146 142 136 131 127 123 119 116 110 101 86 64 28 352 326 305 290 281 277 278 279 281 283 284 284 285 285 285 284 283
137 138 139 140 140 140 140 140 140 141 142 143 143 143 143 143 142 143 144 144 143 141 139 138 138 137 137 137 138 140 141 141 141 142 143 145 146 146 145 143 140 137 134 132 130 128 126 123 114 83 29 355 336 321 308 298 290 287 285 284 284 284 284 285 286 286 285 285 284
137 138 138 138 138 138 138 139 139 140 141 141 141 140 140 140 141 141 142 141 141 140 138 136 136 136 136 136 136 138 139 139 139 140 141 143 145 145 143 141 140 139 138 137 136 135 135 133 131 122 14 320 309 303 298 295 292 290 289 287 286 286 286 286 286 286 285 285 285
136 137 137 136 136 137 137 137 138 139 139 138 138 137 137 138 139 140 139 138 139 139 138 136 134 134 134 135 135 135 136 138 138 138 140 143 143 142 140 137 135 133 132 131 129 129 127 127 126 129 293 302 301 300 299 297 296 294 292 290 289 289 288 288 287 286 285 285 285
134 134 135 135 135 135 135 135 137 138 137 136 135 135 136 137 138 138 137 137 138 137 136 135 134 133 133 134 133 134 135 137 138 139 142 143 142 139 135 131 127 125 124 122 121 120 120 121 129 142 228 300 306 305 303 301 299 296 294 293 292 292 291 291 289 288 287 285 285
132 132 133 133 133 133 133 134 135 136 135 134 134 135 136 136 137 136 136 136 136 135 134 133 133 133 134 134 134 135 136 138 140 142 143 142 138 133 129 125 123 121 118 114 109 103 101 103 132 172 212 272 292 298 297 298 297 295 294 293 293 292 292 292 291 290 288 287 286
131 130 131 132 132 132 132 133 133 133 132 132 133 134 134 134 134 134 134 134 134 133 132 132 133 134 135 137 137 138 138 139 140 141 139 136 131 127 124 122 121 116 106 92 80 67 53 33 2 264 246 258 273 282 287 290 292 293 294 293 292 291 291 290 290 289 288 288 288
129 129 130 130 131 131 130 130 130 129 129 130 131 131 131 131 131 131 132 132 132 132 131 132 133 135 136 138 139 139 139 138 137 135 131 126 122 120 120 119 115 103 86 72 59 44 29 11 351 327 304 288 286 284 286 288 291 293 294 294 293 292 291 290 289 289 289 288 289
129 129 129 130 130 130 129 128 127 127 128 129 129 129 128 128 129 129 129 130 130 130 131 131 133 135 136 136 137 137 136 134 132 128 124 119 117 116 117 117 107 89 71 55 39 25 13 2 352 340 329 318 310 303 300 299 299 299 298 297 295 294 293 291 290 290 289 289 289
128 128 129 130 130 130 129 128 128 128 129 129 128 127 127 127 128 128 128 128 128 129 130 131 132 133 134 134 133 132 130 128 125 122 119 117 116 118 120 117 99 76 53 36 21 12 5 1 355 345 333 325 319 314 311 310 309 307 305 301 298 296 295 295 294 293 291 289 289
128 129 130 130 130 130 129 129 129 129 129 129 128 127 126 127 127 127 127 126 127 128 129 129 130 131 132 132 131 129 126 124 121 119 118 118 120 123 126 123 94 51 28 14 5 2 1 0 356 344 331 322 317 315 313 313 312 311 309 305 301 298 297 296 296 296 294 292 290
130 131 131 131 130 130 129 129 129 129 128 128 127 126 126 127 126 126 126 126 127 128 128 128 130 132 132 131 130 128 126 124 122 120 119 120 123 127 130 129 93 10 352 350 352 355 357 357 352 342 331 319 313 312 312 312 313 311 309 305 301 298 296 296 297 297 296 294 293
131 131 131 130 130 130 129 129 129 128 127 126 126 126 127 127 127 127 127 128 128 128 128 129 132 133 132 130 129 127 125 123 120 119 117 118 120 125 130 134 39 315 314 324 339 350 355 354 348 341 332 322 313 310 311 312 311 309 307 303 300 298 296 296 296 296 295 295 295
130 130 130 130 130 130 129 129 128 127 127 127 127 127 127 127 127 128 128 129 129 130 131 133 133 132 131 130 128 125 123 120 116 114 112 112 114 119 126 147 258 280 287 304 327 342 349 350 346 341 334 325 317 312 311 310 309 307 304 302 300 299 298 297 296 296 295 295 295
129 129 129 129 129 129 129 129 128 127 127 127 128 128 127 128 128 129 130 131 131 133 134 135 133 131 129 127 125 122 119 115 112 108 106 105 105 113 132 171 231 258 274 293 315 331 340 344 343 341 336 329 320 314 311 310 309 307 305 303 302 301 300 299 298 296 295 295 295
129 129 129 129 129 129 129 128 127 127 126 126 126 127 127 128 129 130 132 133 133 134 135 134 131 128 126 124 121 117 114 110 107 104 101 99 105 123 144 169 212 245 268 287 304 319 330 337 340 340 338 331 322 316 312 311 310 309 307 306 305 304 303 302 300 299 297 297 297
129 129 129 129 128 128 127 127 125 125 124 125 126 127 129 129 130 131 132 133 134 134 133 131 128 125 123 120 117 113 109 106 104 103 105 110 117 127 141 167 211 245 269 286 299 311 323 331 337 339 338 333 324 318 315 315 314 313 311 309 307 306 305 304 303 302 301 300 299
129 129 129 128 127 126 125 124 124 124 124 125 127 129 130 130 130 130 131 131 131 130 128 126 124 122 120 118 114 111 108 109 112 117 118 116 117 122 136 167 222 254 275 288 299 309 319 328 335 338 338 333 326 322 321 320 319 317 314 312 310 308 307 306 305 304 303 303 302
129 128 127 126 125 124 123 123 124 126 127 127 128 129 130 130 129 129 129 130 129 127 125 124 123 122 120 117 115 114 116 121 125 125 121 118 122 132 146 175 235 269 285 294 302 311 320 328 334 338 337 332 327 326 326 325 323 319 317 315 313 312 310 309 308 307 306 306 305
126 126 125 124 122 122 122 123 125 127 127 127 127 127 128 128 129 130 130 130 129 127 126 126 126 125 124 123 123 125 129 132 133 131 127 127 141 155 168 179 223 282 299 305 310 315 323 330 335 338 336 332 330 329 329 327 324 322 319 318 316 315 314 313 311 310 309 309 310
122 122 121 120 119 120 122 125 126 126 126 126 126 127 127 128 129 131 132 132 130 129 129 130 131 131 131 132 134 135 136 136 139 142 149 155 175 192 206 216 227 273 300 310 314 320 327 332 337 338 336 332 331 331 330 328 326 324 322 320 319 317 316 314 312 311 311 312 313
119 119 119 119 120 122 125 127 126 126 125 125 127 128 129 130 130 131 133 133 132 131 131 132 133 134 135 136 136 136 136 136 141 151 164 180 211 257 287 302 302 288 290 307 319 326 332 336 339 339 337 334 331 331 330 329 328 326 324 322 320 318 316 315 313 312 312 313 316
120 122 123 123 125 126 127 127 126 126 126 126 127 128 129 130 130 131 131 132 131 131 131 132 132 132 131 130 129 129 131 133 140 155 170 191 243 298 320 329 333 333 325 328 332 336 338 340 341 340 338 334 332 331 330 330 328 327 325 324 322 320 318 316 315 315 315 316 318
124 126 127 128 128 128 127 125 125 126 127 127 127 127 127 127 127 127 127 128 129 130 131 130 128 126 123 122 122 126 133 139 152 186 226 257 299 319 332 338 344 347 349 339 339 341 341 342 342 341 339 335 334 333 332 331 329 327 325 325 324 323 321 320 319 319 319 319 319
126 128 129 128 128 127 126 125 125 127 128 128 127 126 126 125 124 124 125 126 128 129 128 125 122 121 122 125 132 141 154 172 211 263 289 303 313 322 331 336 340 336 320 303 315 331 339 342 343 343 341 338 336 334 333 332 330 328 326 326 325 325 324 323 322 321 321 319 318
Height
727 730 732 735 737 739 741 743 745 747 748 750 752 754 757 760 763 765 767 769 771 773 775 776 776 777 779 781 782 783 784 785 786 788 790 791 791 791 792 794 795 796 796 797 799 800 801 802 803 803 803 803 804 804 805 806 806 806 806 806 807 807 807 807 808 808 808 809 809
727 729 732 734 736 739 741 743 745 747 748 750 751 754 756 759 762 764 767 769 771 773 774 775 776 777 778 780 781 782 783 785 786 788 790 790 791 791 792 793 794 795 796 797 799 800 801 802 802 803 803 803 804 804 805 805 806 806 806 806 806 807 807 807 807 808 808 808 808
726 729 731 733 736 737 740 742 744 746 747 749 751 754 756 759 761 764 766 769 771 772 774 774 775 776 777 779 781 782 783 784 786 788 789 789 790 791 792 793 794 795 796 797 799 800 801 801 802 802 802 803 803 804 805 805 806 806 806 806 806 806 806 807 807 807 807 807 807
725 728 730 732 734 736 738 740 742 744 746 748 751 753 756 759 761 764 766 768 770 772 772 773 774 776 777 778 780 782 783 784 786 787 788 788 789 791 792 793 794 795 796 797 799 800 801 801 801 802 802 803 803 804 804 805 805 805 806 806 806 806 806 806 807 807 807 807 807
725 727 730 732 734 736 737 739 741 743 746 748 750 753 756 759 761 763 766 767 769 770 771 772 774 775 776 778 780 781 782 784 785 786 786 787 789 791 792 793 794 795 796 797 798 799 800 801 801 801 802 802 803 804 804 805 805 805 805 805 805 806 806 806 806 806 806 806 806
725 727 730 732 734 736 738 739 741 743 745 747 749 752 756 758 761 762 765 766 768 769 771 772 774 775 776 777 779 781 782 783 784 785 786 787 789 790 791 792 793 795 796 797 798 799 800 800 801 801 801 802 803 803 804 804 804 804 805 805 805 805 805 806 806 806 806 806 806
725 727 730 732 734 736 737 739 741 743 744 746 749 752 755 757 759 761 763 765 767 769 771 772 773 774 775 776 778 780 781 783 784 784 785 787 788 790 791 792 793 795 796 797 798 799 799 800 800 801 801 802 802 803 803 804 804 804 804 804 804 805 805 805 805 805 805 805 805
726 727 730 731 734 735 737 739 741 742 744 747 749 752 754 756 759 761 763 765 766 768 770 772 773 773 774 775 776 779 780 781 783 784 785 786 788 790 791 792 794 795 796 797 798 799 799 799 800 800 801 801 802 803 803 803 803 803 803 804 804 804 805 805 805 805 805 805 805
726 728 730 732 733 735 737 739 740 742 744 747 750 752 754 756 758 760 762 764 766 768 770 771 772 773 773 775 776 778 780 781 782 783 785 786 788 790 791 792 794 795 796 797 798 798 799 799 799 800 801 801 802 802 802 802 803 803 803 803 804 804 804 804 804 804 804 804 804
726 728 730 732 733 735 737 739 741 742 744 747 750 752 755 756 758 760 761 763 765 767 769 771 772 773 774 775 777 779 780 781 781 783 785 786 788 789 791 792 794 795 796 797 798 798 798 799 799 800 801 801 801 802 802 802 802 802 802 803 803 803 804 804 804 804 804 804 804
726 728 730 731 733 735 737 739 741 743 745 748 751 753 755 756 758 760 761 763 765 767 769 770 771 773 774 776 777 779 779 780 781 783 785 786 788 790 791 792 794 795 796 797 797 798 798 799 799 800 800 801 801 801 801 801 801 801 802 802 803 803 803 803 803 803 803 803 803
726 728 730 731 733 735 737 740 742 744 746 748 751 753 755 756 758 760 762 764 766 767 769 771 772 773 774 776 777 778 779 780 781 783 785 786 788 790 791 793 794 795 796 797 797 797 798 798 799 799 800 801 801 801 801 801 801 801 801 802 802 802 802 802 803 803 803 803 802
727 728 730 732 734 736 738 740 742 745 747 749 751 753 755 757 759 760 762 764 766 767 769 771 772 773 774 776 776 777 778 780 781 783 785 786 788 790 791 793 794 795 796 796 797 797 798 798 799 799 800 800 800 801 801 801 801 801 801 801 802 802 802 802 802 802 802 802 802
727 729 730 732 734 736 738 740 743 745 747 749 751 753 755 757 759 761 762 764 766 767 769 771 772 773 775 776 776 777 778 780 781 783 785 787 788 790 792 793 794 795 796 796 797 797 797 798 798 799 799 800 800 800 800 800 800 801 801 801 801 801 801 801 801 801 801 801 801
728 729 731 733 735 736 739 741 743 746 748 750 752 754 756 758 760 761 762 764 766 767 769 771 772 774 775 776 776 777 778 780 781 783 785 787 789 790 792 793 794 795 796 796 796 797 797 798 798 798 799 799 799 799 799 800 800 800 800 801 801 801 801 801 801 801 801 801 801
728 730 731 733 735 737 739 741 744 746 748 750 752 754 756 758 760 761 762 764 766 768 769 771 772 773 775 776 776 777 779 780 782 784 786 787 789 791 792 793 794 795 796 796 796 796 797 797 798 798 798 798 799 799 799 799 799 800 800 800 800 800 800 800 800 800 800 800 800
729 731 732 734 736 737 740 742 744 747 749 751 753 755 757 758 760 761 763 765 766 768 769 771 772 773 774 776 777 778 779 781 782 784 786 788 789 791 792 793 794 795 795 796 796 796 797 797 797 798 798 798 798 798 798 798 799 799 799 799 799 799 799 799 799 799 799 799 799
730 731 733 734 736 738 741 743 745 747 750 751 753 755 757 758 760 762 764 765 766 768 769 771 771 772 774 775 777 778 780 781 783 785 786 788 790 791 792 793 794 794 795 795 796 796 796 797 797 797 797 797 797 798 798 798 798 798 798 798 799 799 799 799 799 798 798 798 798
730 732 734 735 737 739 741 744 746 748 750 752 754 756 757 759 761 762 764 766 767 768 769 770 771 773 774 775 777 779 781 782 784 786 787 789 790 791 792 793 794 794 794 795 795 796 796 796 797 797 797 797 797 797 797 798 798 798 798 798 798 798 798 798 798 798 798 797 797
731 733 735 736 738 741 743 745 747 749 751 753 755 757 759 761 762 763 765 766 768 769 770 770 771 773 774 776 777 779 781 783 785 786 788 789 791 791 792 793 793 794 794 795 795 795 796 796 796 796 796 796 797 797 797 797 797 797 797 797 797 797 797 797 797 797 797 796 796
732 734 736 738 740 742 744 746 748 750 752 754 756 757 759 761 763 764 765 766 768 769 770 771 772 773 775 776 778 780 782 784 785 787 788 790 791 791 792 793 793 793 794 794 795 795 795 796 796 796 796 796 796 796 796 796 796 796 796 796 796 796 796 796 796 796 796 796 796
733 735 737 739 741 743 745 747 749 751 753 755 756 758 760 761 763 765 766 767 768 770 771 771 772 774 775 777 779 781 782 784 786 787 789 790 791 791 792 792 793 793 794 794 794 795 795 795 795 795 796 796 796 796 796 796 796 796 796 795 795 795 795 795 795 795 795 795 795
734 736 738 741 743 745 747 749 751 752 754 756 757 758 760 761 763 764 766 767 768 770 771 772 773 775 776 777 779 781 783 785 786 788 789 790 791 791 792 792 793 793 793 794 794 794 795 795 795 795 795 795 795 795 795 795 795 795 794 794 794 794 794 794 794 794 794 794 794
735 737 740 742 744 746 748 750 752 753 755 756 757 759 760 761 763 764 766 767 769 770 771 772 774 775 777 778 780 782 784 785 787 788 789 790 791 791 792 792 792 793 793 794 794 794 794 794 795 794 794 794 794 794 794 794 794 794 793 793 793 793 793 793 793 793 793 793 793
736 738 741 743 746 747 750 751 753 755 756 758 758 759 760 761 763 764 766 767 769 770 771 773 774 776 777 779 781 783 784 786 787 788 789 790 791 791 792 792 792 793 793 794 794 794 794 794 794 794 794 794 794 793 793 793 793 793 793 792 792 792 792 792 792 792 792 792 792
737 740 742 744 746 748 750 752 754 755 757 758 759 760 761 762 763 765 766 768 769 771 772 773 775 776 778 780 781 783 785 786 787 788 789 790 791 791 792 792 792 793 793 793 794 794 794 794 794 793 793 793 793 793 792 792 792 792 792 791 791 791 791 791 791 791 791 791 791
739 741 743 745 747 749 750 752 753 755 757 759 760 761 761 762 764 765 767 768 770 771 773 774 776 777 779 780 782 784 785 786 787 788 789 790 791 791 792 792 792 793 793 793 793 794 793 793 793 793 793 792 792 792 792 791 791 791 791 791 791 791 790 790 790 790 790 790 790
740 742 744 746 748 749 751 752 753 755 757 759 760 761 762 763 765 766 768 769 771 772 774 775 776 778 779 781 782 784 785 786 787 788 789 790 791 791 791 792 792 793 793 793 793 793 793 793 793 792 792 792 792 791 791 791 790 790 790 790 790 790 790 790 789 789 789 789 789
741 742 744 746 748 750 751 752 754 756 757 758 760 761 763 764 766 767 769 770 771 773 774 776 777 778 780 781 783 784 785 786 787 788 789 790 791 791 791 792 792 793 793 793 793 793 792 792 792 792 792 791 791 791 790 790 790 789 789 789 789 789 789 789 789 789 788 788 788
742 743 745 747 749 751 752 754 755 756 757 759 760 762 763 765 767 768 769 771 772 773 775 776 777 779 780 781 783 784 786 786 787 788 789 790 791 791 792 792 792 793 793 792 792 792 792 792 791 791 791 791 790 790 790 789 789 789 789 788 788 788 788 788 788 788 788 787 787
743 745 746 748 750 751 753 755 756 756 758 759 761 763 764 766 767 769 770 771 772 774 775 776 778 779 781 782 783 784 786 786 787 788 789 790 791 791 792 792 792 792 792 792 792 791 791 791 791 791 790 790 790 789 789 789 788 788 788 788 787 787 787 787 787 787 787 786 786
745 746 747 749 751 753 755 756 757 758 759 761 762 764 765 767 768 769 770 771 773 774 776 777 778 780 781 782 784 785 786 787 788 788 789 790 791 791 792 792 792 791 791 791 791 791 791 791 790 790 790 789 789 789 788 788 788 787 787 787 787 787 787 787 786 786 786 786 785
746 747 749 750 752 754 756 757 758 759 760 761 763 765 766 767 768 769 771 772 774 775 776 777 779 780 781 782 784 785 786 787 788 789 790 790 791 791 791 792 791 791 791 791 791 791 790 790 789 789 789 789 788 788 787 787 787 787 786 786 786 786 786 786 786 786 785 785 784
747 749 750 751 753 755 756 757 758 760 761 763 765 766 767 768 769 770 771 773 774 776 777 778 779 780 781 783 784 785 786 787 788 789 790 790 791 791 791 791 791 791 791 790 790 790 789 789 789 789 788 788 788 787 787 786 786 786 786 786 786 786 786 785 785 785 784 784 784
749 750 751 753 754 755 756 757 759 761 762 764 766 766 767 768 769 771 772 773 775 776 777 779 780 781 782 783 784 785 786 787 788 789 790 790 790 791 791 791 791 790 790 790 789 789 789 789 788 788 788 787 787 786 786 786 786 786 785 785 785 785 785 785 784 784 784 783 783
750 751 752 754 755 756 757 759 761 762 763 765 766 767 768 769 770 771 773 774 775 776 778 779 781 781 782 783 785 786 786 787 788 789 789 790 790 790 790 790 790 790 789 789 789 788 788 788 788 788 787 787 786 786 786 786 785 785 785 785 784 784 784 784 784 783 783 783 782
751 752 753 754 756 757 759 760 762 763 764 765 766 767 768 770 771 772 774 775 776 777 778 780 781 782 783 784 785 786 786 787 788 789 789 789 790 790 790 790 790 789 789 789 788 788 788 788 787 787 787 786 786 786 785 785 785 784 784 784 784 784 784 784 783 783 782 782 781
752 753 754 756 757 759 760 762 763 764 765 766 767 768 769 770 772 773 774 775 776 777 779 780 781 782 783 784 785 786 786 787 788 788 789 789 789 789 789 789 789 789 788 788 788 788 788 787 787 787 786 786 785 785 785 784 784 784 784 784 783 783 783 783 782 782 781 781 781
753 754 756 757 759 760 762 763 764 765 766 766 768 769 770 771 773 774 775 776 777 778 779 780 781 782 783 784 785 786 786 787 787 788 788 788 788 788 788 788 788 788 788 788 788 787 787 787 787 786 786 786 785 785 784 784 784 784 783 783 783 783 783 782 782 781 781 781 780
754 756 757 759 760 761 762 763 764 765 766 767 768 770 771 772 774 775 776 777 778 779 779 780 781 782 783 784 785 786 786 787 787 787 788 788 787 787 787 787 787 787 787 787 787 787 787 786 786 786 786 785 785 784 784 784 784 783 783 783 783 782 782 781 781 781 780 780 780
756 757 759 760 761 762 763 764 765 766 767 768 769 771 772 773 774 776 776 777 778 779 780 781 782 783 784 785 785 786 786 786 787 787 787 787 787 787 786 786 786 786 786 786 786 786 786 786 786 786 785 785 784 784 784 784 784 783 783 783 782 782 781 781 781 780 780 780 779